ATLAS CENTAUR 2 1 00694U 63047A 25349.55308097 .00002033 00000+0 23953-3 0 9991 2 00694 30.3541 305.7433 0548927 58.9641 306.3685 14.11775121119721 THOR AGENA D R/B 1 00733U 64002A 25349.93210171 .00000237 00000+0 10174-3 0 9999 2 00733 99.1218 353.7235 0033501 141.0749 219.2855 14.33961616226294 SL-3 R/B 1 00877U 64053B 25349.92587412 .00000244 00000+0 71868-4 0 9994 2 00877 65.0758 216.7942 0074117 319.3310 40.2268 14.61278604254558 SL-8 R/B 1 02802U 67045B 25349.90705802 .00000494 00000+0 14422-3 0 9990 2 02802 74.0099 144.5483 0064144 173.0878 187.1181 14.45540706 76911 SL-8 R/B 1 03230U 68040B 25349.90289122 .00002525 00000+0 19174-3 0 9990 2 03230 74.0300 124.8030 0025614 325.9734 33.9811 15.02548126 77422 OAO 2 1 03597U 68110A 25349.47850304 .00000284 00000+0 81804-4 0 9992 2 03597 34.9947 15.3704 0006032 244.3814 115.6254 14.47246133 6891 ISIS 1 1 03669U 69009A 25349.44962057 .00000240 00000+0 17480-3 0 9996 2 03669 88.4485 164.4998 1706884 259.2189 81.2994 11.30355662339015 SERT 2 1 04327U 70009A 25349.82478440 .00000030 00000+0 96904-4 0 9996 2 04327 99.2653 292.5533 0005347 27.6922 27.0202 13.58718149768504 SL-3 R/B 1 05118U 71028B 25349.95838843 .00025999 00000+0 38867-3 0 9992 2 05118 81.2369 154.9145 0019222 228.8704 131.0888 15.54640924975631 ASTEX 1 1 05560U 71089A 25349.94700759 .00000558 00000+0 14222-3 0 9996 2 05560 92.7142 124.6567 0016004 15.7809 344.3893 14.50646444850167 SL-8 R/B 1 05730U 71119B 25349.96158646 .00010278 00000+0 53618-3 0 9995 2 05730 73.8883 331.9884 0559104 315.6028 40.1549 14.35811461643469 OAO 3 (COPERNICUS) 1 06153U 72065A 25349.91142640 .00000361 00000+0 78563-4 0 9997 2 06153 35.0064 54.5982 0006762 200.0233 326.3199 14.59909198833944 ATLAS CENTAUR R/B 1 06155U 72065B 25349.63323000 .00001332 00000+0 18586-3 0 9996 2 06155 35.0017 78.2477 0033667 22.1525 338.0623 14.77417092828827 SL-8 R/B 1 08459U 75112B 25349.96085687 .00000272 00000+0 98232-4 0 9992 2 08459 74.0588 172.9332 0016647 284.0205 75.9098 14.38146915619839 SL-3 R/B 1 10114U 77057B 25349.93377137 .00009712 00000+0 22210-3 0 9994 2 10114 97.5679 153.3859 0006658 219.5993 140.4769 15.43024253655409 SEASAT 1 1 10967U 78064A 25349.79524588 .00000371 00000+0 14227-3 0 9998 2 10967 108.0120 309.4443 0001553 251.2831 108.8146 14.46065184494385 SL-14 R/B 1 11267U 79011B 25349.94060960 .00000570 00000+0 53923-4 0 9999 2 11267 82.5233 176.0085 0015621 342.5730 17.4951 14.91773345516292 SL-8 R/B 1 11574U 79089B 25349.95759972 .00000262 00000+0 87275-4 0 9999 2 11574 74.0688 246.0237 0014521 79.0663 281.2126 14.42285939424033 SL-14 R/B 1 11672U 80005B 25349.56309531 .00000576 00000+0 55879-4 0 9990 2 11672 82.5147 27.0216 0017374 84.9160 275.4041 14.90794930463950 SL-8 R/B 1 12139U 81003B 25349.79190449 .00010846 00000+0 28653-3 0 9999 2 12139 82.9306 7.3949 0279220 109.7210 253.4368 15.07127724302024 SL-3 R/B 1 12465U 81046B 25349.74896316 .00008100 00000+0 20327-3 0 9999 2 12465 81.2333 30.3384 0018633 313.5544 46.4149 15.39671094425506 SL-3 R/B 1 12904U 81103B 25349.95098844 .00004352 00000+0 19903-3 0 9997 2 12904 81.1589 311.5926 0011926 201.5101 158.5631 15.20272744960509 SL-3 R/B 1 13068U 82013B 25349.99831871 .00003051 00000+0 13492-3 0 9991 2 13068 81.1752 258.7950 0024120 100.3554 260.0398 15.21115662391626 SL-3 R/B 1 13154U 82039B 25349.95359690 .00002206 00000+0 13472-3 0 9994 2 13154 81.1712 312.3997 0029532 241.3964 118.4290 15.09545198369000 SL-3 R/B 1 13403U 82079B 25349.89894508 .00004296 00000+0 17646-3 0 9998 2 13403 81.1469 291.9365 0027091 88.9101 271.5236 15.23626803364930 SL-14 R/B 1 13553U 82092B 25349.90199206 .00000452 00000+0 48095-4 0 9997 2 13553 82.5680 219.7546 0019374 215.9192 154.4884 14.86558664316484 SL-3 R/B 1 13819U 83010B 25349.81895502 .00010427 00000+0 23045-3 0 9995 2 13819 81.1034 104.8595 0017022 340.3121 19.7463 15.43543755344990 SL-3 R/B 1 14208U 83075B 25349.97909689 .00007640 00000+0 21712-3 0 9990 2 14208 97.6102 346.5717 0023105 164.0292 196.1685 15.36203226317298 COSMOS 1536 1 14699U 84013A 25349.96098767 .00004232 00000+0 18056-3 0 9993 2 14699 82.5453 190.9698 0013760 213.4635 146.5733 15.22554646259871 SL-14 R/B 1 14820U 84027B 25349.98996765 .00000524 00000+0 57228-4 0 9996 2 14820 82.5413 323.5078 0016417 249.0189 110.9271 14.85877966235204 SL-8 R/B 1 15483U 85006B 25349.97379772 .00000221 00000+0 81919-4 0 9990 2 15483 74.0466 55.1850 0018825 346.6659 186.4695 14.37723015141993 SL-12 R/B(2) 1 15772U 85042D 25349.98460263 .00000043 00000+0 41076-4 0 9990 2 15772 71.1082 264.5649 0037511 256.7604 178.2165 14.21952917102493 SL-14 R/B 1 15945U 85069B 25349.79827650 .00000569 00000+0 61606-4 0 9991 2 15945 82.5270 103.8276 0020274 109.0674 251.2740 14.86328204160375 SL-16 R/B 1 16182U 85097B 25349.95698435 .00000264 00000+0 15623-3 0 9990 2 16182 71.0036 316.8297 0006910 5.8536 54.6149 14.16586097 75374 SL-14 R/B 1 16496U 86006B 25349.93064824 .00000618 00000+0 63106-4 0 9999 2 16496 82.5266 338.5484 0076432 189.1646 170.8183 14.86676003136761 COSMOS 1743 1 16719U 86034A 25349.94214873 .00023743 00000+0 38881-3 0 9995 2 16719 82.5340 161.2646 0004698 238.7260 121.3533 15.52332834167232 SL-14 R/B 1 16792U 86046B 25349.94781628 .00000547 00000+0 60285-4 0 9997 2 16792 82.4809 159.2841 0024017 141.9901 218.3016 14.85488113113972 SL-14 R/B 1 16882U 86055B 25349.60178017 .00000460 00000+0 50423-4 0 9999 2 16882 82.5201 205.6837 0017519 249.1270 132.7304 14.85533479106886 AJISAI (EGS) 1 16908U 86061A 25349.94710862 -.00000082 00000+0 11123-3 0 9996 2 16908 50.0113 350.8547 0011302 73.9700 318.5443 12.44514343457578 COSMOS 1812 1 17295U 87003A 25349.90546382 .00088646 00000+0 56361-3 0 9997 2 17295 82.4866 288.5874 0007117 82.0882 278.1191 15.76139668131158 SL-14 R/B 1 17567U 87024B 25349.94424758 .00000515 00000+0 56015-4 0 9994 2 17567 82.5274 171.4441 0018355 173.5571 186.5885 14.86027033 75691 COSMOS 1833 1 17589U 87027A 25349.83259226 .00000186 00000+0 12516-3 0 9996 2 17589 70.9140 142.2752 0022653 327.4076 32.5645 14.13022903998469 SL-16 R/B 1 17590U 87027B 25349.69644918 .00000179 00000+0 11264-3 0 9999 2 17590 71.0032 93.4879 0007309 256.1373 103.8938 14.17152960 3442 SL-14 R/B 1 17912U 87038B 25349.82880603 .00000446 00000+0 48892-4 0 9992 2 17912 82.5015 15.7912 0020890 82.6752 277.6837 14.85263974 66783 COSMOS 1844 1 17973U 87041A 25349.95636070 .00000073 00000+0 62765-4 0 9995 2 17973 70.8966 210.7872 0029985 152.0094 208.2648 14.14526367991745 SL-14 R/B 1 18153U 87055B 25349.68541759 .00000474 00000+0 51979-4 0 9990 2 18153 82.4999 68.2125 0019267 292.9073 67.0109 14.85524250 57463 COSMOS 1867 1 18187U 87060A 25349.88639662 .00000003 00000+0 38671-4 0 9998 2 18187 65.0088 181.3908 0013619 271.4367 88.5157 14.31486577 7944 SL-14 R/B 1 18749U 88001B 25349.94466334 .00000498 00000+0 54854-4 0 9998 2 18749 82.5134 274.1329 0018764 150.8079 209.4190 14.85427394 29595 COSMOS 1933 1 18958U 88020A 25349.98474478 .00003464 00000+0 17313-3 0 9997 2 18958 82.5125 333.6724 0006080 117.6167 242.5685 15.17134342 37538 SL-3 R/B 1 19046U 88032B 25349.95813371 .00004137 00000+0 20046-3 0 9990 2 19046 97.5077 328.6565 0027087 161.8688 198.3519 15.18776233 39397 SL-16 R/B 1 19120U 88039B 25349.98831732 -.00000018 00000+0 14323-4 0 9991 2 19120 71.0142 245.5297 0019666 110.7053 249.6183 14.19596977946504 COSMOS 1953 1 19210U 88050A 25349.98095504 .00004848 00000+0 18140-3 0 9997 2 19210 82.5093 242.3290 0013639 61.5170 298.7440 15.26977109 25004 SL-8 R/B 1 19257U 88053B 25349.94927569 .00000238 00000+0 85556-4 0 9997 2 19257 74.0477 266.8045 0018989 109.6981 322.9876 14.38861181964552 COSMOS 1975 1 19573U 88093A 25349.33740722 .00006247 00000+0 23746-3 0 9997 2 19573 82.5202 202.2283 0012943 104.5079 255.7596 15.26515185 6532 SL-14 R/B 1 19574U 88093B 25349.88429795 .00000533 00000+0 58780-4 0 9991 2 19574 82.5307 120.7162 0019712 318.5939 160.0806 14.85552606988592 SL-16 R/B 1 19650U 88102B 25349.99023827 .00000180 00000+0 11506-3 0 9997 2 19650 71.0000 327.6034 0012860 146.2667 213.9278 14.16137188915046 INTERCOSMOS 24 1 20261U 89080A 25349.92215288 .00000815 00000+0 23161-3 0 9995 2 20261 82.6046 158.8836 1188886 127.1406 244.4390 12.59445878656252 SL-14 R/B 1 20262U 89080C 25349.78453322 .00000400 00000+0 11544-3 0 9995 2 20262 82.5925 227.0664 1230624 16.6323 347.1623 12.50416266649661 DELTA 1 R/B 1 20323U 89089B 25349.88178854 .00000324 00000+0 88962-4 0 9991 2 20323 97.0749 205.6213 0069896 28.4973 332.0019 14.50574666883582 ARIANE 40 R/B 1 20443U 90005H 25349.93596921 .00000296 00000+0 10776-3 0 9994 2 20443 98.3241 48.0236 0011284 97.1081 263.1391 14.39801102880759 DELTA 2 R/B(1) 1 20453U 90008B 25349.72256287 .00032051 00000+0 50923-3 0 9995 2 20453 35.6078 1.2691 0111270 205.7509 153.7655 15.45467931913093 COSMOS 2058 1 20465U 90010A 25349.87148797 .00004292 00000+0 25875-3 0 9997 2 20465 82.4673 129.9494 0008490 259.8417 100.1856 15.10502643929585 SL-14 R/B 1 20466U 90010B 25349.98310021 .00000453 00000+0 52151-4 0 9994 2 20466 82.5020 346.0008 0018945 211.8792 148.1278 14.83474315916079 SL-14 R/B 1 20511U 90018B 25349.92043222 .00000505 00000+0 60464-4 0 9997 2 20511 82.5212 301.3915 0016758 13.2536 346.9115 14.82050015910173 HST 1 20580U 90037B 25349.92697688 .00005667 00000+0 19308-3 0 9999 2 20580 28.4681 250.7951 0001830 280.0887 79.9502 15.28099791760488 SL-16 R/B 1 20625U 90046B 25349.78568087 -.00000207 00000+0 -82404-4 0 9998 2 20625 70.9991 114.1247 0011879 67.6643 292.5738 14.15000653836525 COSMOS 2084 1 20663U 90055A 25349.95657131 .00002282 00000+0 17252-3 0 9999 2 20663 62.7903 261.0319 0031224 175.0793 185.0621 15.05039777923711 SL-6 R/B(2) 1 20666U 90055D 25349.89414017 .00001570 00000+0 13029-3 0 9996 2 20666 62.7819 178.6975 0013038 311.2466 48.7509 15.03089722925596 SL-8 R/B 1 20775U 90078B 25349.96317173 .00017474 00000+0 54046-3 0 9999 2 20775 82.9045 326.4249 0371439 295.0480 61.2606 14.86078309796858 SL-8 R/B 1 21088U 91006B 25349.80326325 .00000077 00000+0 62459-4 0 9990 2 21088 82.9424 232.4343 0021182 270.7445 158.8291 13.77490430752527 OKEAN-3 1 21397U 91039A 25349.94192271 .00003228 00000+0 23050-3 0 9999 2 21397 82.5178 57.9483 0013188 254.3658 105.6114 15.04142488852443 COSMOS 2151 1 21422U 91042A 25349.95931766 .00001860 00000+0 14848-3 0 9998 2 21422 82.4957 164.4004 0012320 348.9676 11.1276 14.99698611850643 SL-14 R/B 1 21423U 91042B 25349.95591248 .00000441 00000+0 52887-4 0 9996 2 21423 82.4929 298.7070 0017740 151.4858 208.7331 14.81741881840674 ERS-1 1 21574U 91050A 25349.93460148 .00000332 00000+0 12078-3 0 9990 2 21574 98.7904 1.0694 0033041 90.9033 269.5940 14.39367262803686 ARIANE 40 R/B 1 21610U 91050F 25349.76851174 .00000340 00000+0 11442-3 0 9998 2 21610 98.2163 40.0897 0002594 351.0233 9.0910 14.42815843806896 INTERCOSMOS 25 1 21819U 91086A 25349.93780115 .00001817 00000+0 36173-3 0 9991 2 21819 82.6067 0.6422 1486465 297.5025 48.2702 12.11738532486543 SL-8 R/B 1 21876U 92008B 25349.95106757 .00000135 00000+0 12357-3 0 9995 2 21876 82.9266 330.0575 0034993 10.9509 47.4005 13.75959625697907 SL-8 R/B 1 21938U 92020B 25349.88590553 .00000113 00000+0 10090-3 0 9999 2 21938 82.9302 215.9814 0029108 169.3472 201.3942 13.75527794689612 USA 81 1 21949U 92023A 25349.89828033 .00000201 00000+0 67261-4 0 9993 2 21949 85.0079 179.7546 0001280 68.9814 291.1515 14.32328018 82794 COSMOS 2219 1 22219U 92076A 25349.90789370 .00000082 00000+0 67892-4 0 9991 2 22219 71.0572 193.2100 0019136 322.5726 37.4062 14.14062933706539 SL-16 R/B 1 22220U 92076B 25349.77499284 .00000111 00000+0 79471-4 0 9999 2 22220 71.0005 5.1381 0014613 229.9087 303.3063 14.16841219709947 COSMOS 2221 1 22236U 92080A 25349.76132823 .00001617 00000+0 14242-3 0 9999 2 22236 82.5042 359.4333 0016185 112.4071 247.8868 14.95772210768243 SL-16 R/B 1 22285U 92093B 25349.78294904 .00000337 00000+0 19677-3 0 9993 2 22285 71.0200 180.4075 0002225 61.3624 298.7723 14.15431672701289 COSMOS 2228 1 22286U 92094A 25349.89928694 .00001676 00000+0 14401-3 0 9994 2 22286 82.5176 317.5110 0016728 219.7632 140.2365 14.96745165763525 SL-16 R/B 1 22566U 93016B 25349.81499357 .00000081 00000+0 66291-4 0 9995 2 22566 71.0080 31.3449 0007962 91.6336 268.5699 14.15287139690309 COSMOS 2242 1 22626U 93024A 25349.71231289 .00001490 00000+0 12995-3 0 9994 2 22626 82.5187 347.0037 0015135 223.2284 136.7751 14.96119293767839 SL-16 R/B 1 22803U 93059B 25349.90831425 -.00000154 00000+0 -52215-4 0 9996 2 22803 70.9883 187.8047 0018151 331.1032 28.9085 14.17213148667661 ARIANE 40 R/B 1 22830U 93061H 25349.90043686 .00000252 00000+0 10834-3 0 9990 2 22830 98.5074 55.3728 0011063 166.8566 193.2909 14.32803450682109 COSMOS 2278 1 23087U 94023A 25349.71852841 -.00000205 00000+0 -82570-4 0 9991 2 23087 71.0538 350.7788 0008165 174.7404 185.3806 14.14349577632930 SL-16 R/B 1 23088U 94023B 25349.94466281 -.00000123 00000+0 -39046-4 0 9995 2 23088 71.0000 246.7556 0001555 17.2278 342.8897 14.15002828634240 SL-16 R/B 1 23343U 94074B 25349.87499933 .00000471 00000+0 69972-4 0 9992 2 23343 97.7200 19.0550 0007721 127.0732 45.8664 14.79293156674851 SL-16 R/B 1 23405U 94077B 25349.95894562 .00000221 00000+0 13764-3 0 9990 2 23405 70.9812 168.6410 0004762 282.0720 77.9869 14.15551708604383 ARIANE 40+ R/B 1 23561U 95021B 25349.95512419 .00000298 00000+0 10903-3 0 9997 2 23561 98.4649 57.5052 0007345 41.3948 131.5074 14.39697901607194 SL-16 R/B 1 23705U 95058B 25349.74978000 -.00000100 00000+0 -26569-4 0 9996 2 23705 71.0225 356.4848 0014976 251.6264 108.3231 14.15484062555971 SL-16 R/B 1 24298U 96051B 25349.74643741 .00000024 00000+0 39917-4 0 9993 2 24298 70.7595 352.9195 0019445 257.6473 102.2470 14.12397215509792 ORBVIEW 2 (SEASTAR) 1 24883U 97037A 25349.91265175 .00000287 00000+0 11621-3 0 9990 2 24883 98.8457 147.0669 0001518 329.8091 30.3006 14.35419534496457 SL-16 R/B 1 25400U 98043G 25349.88562557 .00000065 00000+0 46060-4 0 9994 2 25400 98.8129 297.7213 0008797 256.5143 103.5056 14.26026432427045 SL-16 R/B 1 25407U 98045B 25349.73133268 -.00000101 00000+0 -27099-4 0 9994 2 25407 71.0115 358.1353 0006744 172.5529 187.5696 14.16174543415216 ISS (ZARYA) 1 25544U 98067A 25349.89461712 .00006813 00000+0 12896-3 0 9997 2 25544 51.6305 126.8563 0003169 254.4589 105.6050 15.49611341543340 CZ-4B R/B 1 25732U 99025C 25349.87535705 .00000068 00000+0 53816-4 0 9997 2 25732 98.6765 31.0852 0036409 224.7833 308.5717 14.18244366376288 OKEAN-O 1 25860U 99039A 25349.89922592 .00000736 00000+0 10378-3 0 9997 2 25860 97.9601 45.5736 0000882 105.0894 255.0416 14.80166800421992 SL-16 R/B 1 25861U 99039B 25349.89127569 .00000592 00000+0 82173-4 0 9992 2 25861 98.0124 44.0427 0015173 164.5478 195.6201 14.81591036424452 DELTA 2 R/B 1 25876U 99041E 25349.82929486 .00001127 00000+0 22126-3 0 9998 2 25876 51.7616 276.1129 0504633 100.8750 264.9370 14.11409234351184 HELIOS 1B 1 25977U 99064A 25349.69640462 .00001269 00000+0 14719-3 0 9990 2 25977 98.1757 244.4497 0001558 41.1331 319.0001 14.87295619672770 TERRA 1 25994U 99068A 25349.90600187 .00000462 00000+0 10357-3 0 9995 2 25994 97.9746 41.4743 0003602 88.3629 84.4744 14.60905450382843 SL-16 R/B 1 26070U 00006B 25349.93689562 -.00000243 00000+0 -99150-4 0 9990 2 26070 71.0027 273.9352 0018552 304.3317 55.6050 14.15809707336709 TITAN 4B R/B 1 26474U 00047B 25349.92503018 .00002767 00000+0 18107-3 0 9996 2 26474 67.9895 275.9089 0038716 140.6804 219.7168 15.08806055380279 ENVISAT 1 27386U 02009A 25349.88696517 .00000125 00000+0 54183-4 0 9992 2 27386 98.3604 300.5478 0001136 83.8244 293.5275 14.39000449247128 IDEFIX & ARIANE 42P R/B 1 27422U 02021B 25349.79972612 .00000296 00000+0 12901-3 0 9990 2 27422 98.5788 284.4509 0012958 75.4567 284.8052 14.30952685232026 AQUA 1 27424U 02022A 25349.97106834 .00001024 00000+0 21484-3 0 9994 2 27424 98.4040 310.9026 0001209 114.3239 286.2663 14.61816755256507 CZ-4B R/B 1 27432U 02024C 25349.76721272 .00000056 00000+0 51886-4 0 9995 2 27432 98.8997 38.5284 0049163 261.1251 207.4617 14.14528406217373 MIDORI II (ADEOS-II) 1 27597U 02056A 25349.86579743 .00000261 00000+0 12070-3 0 9996 2 27597 98.7639 302.8385 0000344 153.1045 207.0155 14.29207896198324 H-2A R/B 1 27601U 02056E 25349.89045802 .00000360 00000+0 14066-3 0 9996 2 27601 98.3069 308.5218 0071316 51.8992 6.1851 14.33678871202106 CZ-4B R/B 1 28059U 03049C 25349.89673093 .00000365 00000+0 95256-4 0 9992 2 28059 98.6790 336.5799 0049133 126.5926 233.9805 14.54912217174411 CZ-2C R/B 1 28222U 04012C 25349.89134832 .00031013 00000+0 44771-3 0 9997 2 28222 97.7424 42.7736 0016413 257.9207 102.0207 15.55764180191215 SL-16 R/B 1 28353U 04021B 25349.87433903 -.00000217 00000+0 -87950-4 0 9992 2 28353 71.0012 48.3875 0005117 195.2966 164.8002 14.14579506110983 CZ-4B R/B 1 28415U 04035C 25349.83702756 .00006341 00000+0 23566-3 0 9991 2 28415 97.3610 20.1401 0031523 265.9085 93.8551 15.27423897167109 CZ-2C R/B 1 28480U 04046B 25349.76374123 .00000204 00000+0 90785-4 0 9990 2 28480 98.1990 264.9536 0140379 43.4253 317.7885 14.26942457 96536 ARIANE 5 R/B 1 28499U 04049H 25349.88681270 .00001103 00000+0 12879-3 0 9996 2 28499 98.2523 150.2810 0083307 262.6012 96.5729 14.85019416133352 CZ-2D R/B 1 28738U 05024B 25349.94303129 .00024153 00000+0 38289-3 0 9990 2 28738 97.3635 357.4746 0004991 354.4693 5.6504 15.53379439126756 ALOS (DAICHI) 1 28931U 06002A 25349.89573016 .00001308 00000+0 22894-3 0 9992 2 28931 98.1095 301.3608 0001281 114.0817 246.0523 14.69496566 61175 H-2A R/B 1 28932U 06002B 25349.89043803 .00007459 00000+0 39290-3 0 9990 2 28932 98.2310 124.8960 0054646 165.6005 194.6798 15.14637315 81747 RESURS-DK 1 1 29228U 06021A 25349.74093218 .00002179 00000+0 13214-3 0 9991 2 29228 69.9335 94.0823 0006974 256.9262 103.1125 15.12179153 74834 CZ-4B R/B 1 29507U 06046C 25349.87158308 .00004198 00000+0 21974-3 0 9999 2 29507 97.5736 30.0016 0033554 195.5144 164.5063 15.15905097 47346 CZ-2C R/B 1 31114U 07010B 25349.88907540 .00000136 00000+0 81231-4 0 9990 2 31114 98.3975 102.3814 0059166 176.8270 183.3295 14.20211291967826 COSMO-SKYMED 1 1 31598U 07023A 25349.99919802 .00003545 00000+0 32307-3 0 9992 2 31598 97.8834 175.4194 0001466 88.9185 271.2204 14.95790824 2395 COSMOS 2428 1 31792U 07029A 25349.78267587 .00000118 00000+0 89240-4 0 9999 2 31792 70.9366 19.4910 0003836 19.2194 340.9071 14.12890685952245 SL-16 R/B 1 31793U 07029B 25349.44732071 .00000021 00000+0 35749-4 0 9996 2 31793 70.9755 349.4659 0002070 261.7978 250.4124 14.14814680953458 KORONAS-FOTON 1 33504U 09003A 25349.48130318 .00008430 00000+0 20122-3 0 9992 2 33504 82.4312 3.2654 0013380 99.7854 260.4903 15.41259390932764 CZ-2C R/B 1 37731U 11030B 25349.90583150 .00001447 00000+0 19005-3 0 9993 2 37731 97.8415 303.9423 0051319 263.0373 164.9940 14.80912145777698 H-2A R/B 1 38341U 12025E 25349.92048587 .00001945 00000+0 18328-3 0 9998 2 38341 98.4603 305.3960 0043868 225.6409 134.1212 14.94473582735707 SHIJIAN-16 (SJ-16) 1 39358U 13057A 25350.02209334 .00001890 00000+0 18878-3 0 9994 2 39358 74.9731 343.4447 0017750 312.1331 47.8347 14.91996780659023 SL-4 R/B 1 39679U 14021B 25349.80232051 .00008157 00000+0 19844-3 0 9995 2 39679 51.6086 25.7099 0101525 157.1811 203.3731 15.36745110643366 ALOS-2 1 39766U 14029A 25349.98942623 .00000568 00000+0 82994-4 0 9997 2 39766 97.9224 84.7889 0001378 97.0355 263.1013 14.79466887624499 YAOGAN-29 1 41038U 15069A 25349.99104190 .00000357 00000+0 50681-4 0 9991 2 41038 98.0225 13.1736 0000149 204.2946 155.8260 14.82887133543471 ASTRO-H (HITOMI) 1 41337U 16012A 25349.93055932 .00002446 00000+0 14357-3 0 9995 2 41337 30.9977 176.8014 0009633 211.1588 148.8480 15.09374122539564 HXMT (HUIYAN) 1 42758U 17034A 25349.82110814 .00003768 00000+0 20101-3 0 9999 2 42758 43.0128 122.5277 0031265 63.5568 296.8483 15.16274965469805 CZ-2C R/B 1 43521U 18054D 25349.77808480 .00092557 00000+0 59571-3 0 9995 2 43521 35.1316 160.2828 0015186 175.7937 184.2926 15.74743985415536 SAOCOM 1A 1 43641U 18076A 25349.97990390 .00000239 00000+0 36532-4 0 9995 2 43641 97.8847 174.3546 0001496 78.7620 281.3761 14.82161659388968 H-2A R/B 1 43682U 18084L 25349.81651168 .00013708 00000+0 37102-3 0 9997 2 43682 98.8773 184.5331 0027145 315.8004 44.1067 15.37484689392878 SAOCOM 1B 1 46265U 20059A 25350.01114663 .00000839 00000+0 11190-3 0 9990 2 46265 97.8841 173.4857 0001278 85.1787 274.9573 14.82165789286353 CSS (TIANHE) 1 48274U 21035A 25349.72502975 .00014504 00000+0 18267-3 0 9996 2 48274 41.4685 358.5824 0007901 56.1338 304.0252 15.59304358264497 COSMOS 2550 1 48865U 21056A 25350.24725916 -.00000074 00000+0 35786-5 0 9991 2 48865 67.1433 293.3244 0008301 269.3680 90.6523 15.33837640250664 CZ-2C R/B 1 52794U 22058K 25349.51726892 .00019058 00000+0 34329-3 0 9993 2 52794 50.1917 29.3837 0045162 210.0126 149.8253 15.48652892197069 CZ-2C R/B 1 54039U 22132E 25349.95296791 .00024339 00000+0 35971-3 0 9990 2 54039 97.2942 346.2135 0022624 46.5023 313.8107 15.55017309177336 GSLV R/B 1 54149U 22138AN 25349.86554161 .00002050 00000+0 17854-3 0 9992 2 54149 87.3828 194.4274 0024187 95.3589 265.0403 14.96148661171390 XRISM 1 57800U 23137A 25349.67596707 .00003306 00000+0 19080-3 0 9998 2 57800 31.0016 106.5849 0007764 274.8716 85.1035 15.10367021125078 ACS3 1 59588U 24077B 25349.85910599 .00021831 00000+0 18631-1 0 9998 2 59588 97.2650 304.7688 0076985 330.8537 28.8339 13.85655809 82571 SZ-21 MODULE 1 66515U 25246C 25349.73492091 .00020523 00000+0 22577-3 0 9997 2 66515 41.4776 357.7735 0006167 275.8419 84.1717 15.62644262 4917